DW2227 Weather Reports


Display with metric or nautical units.
time (UTC)temp
F
wind
direction
speed
MPH
gust
MPH
rain 1hr
in
rain 24hr
in
rain mn
in
humidity
%
barometer
mb
20260905022355 80 66 0.0 0.0 0.00 0.00 0.00 89 1012.5
20260905021828 80 66 0.0 0.0 0.00 0.00 0.00 89 1012.6
20260905021345 80 66 0.0 0.0 0.00 0.00 0.00 88 1012.6
20260905020819 80 66 0.0 0.0 0.00 0.00 0.00 88 1012.7
20260905020333 80 66 0.0 0.0 0.00 0.00 0.00 89 1012.7
20260905015827 81 66 0.0 0.0 0.00 0.00 0.00 88 1012.7
20260905015344 81 66 0.0 0.0 0.00 0.00 0.00 88 1012.7
20260905014817 81 66 0.0 0.0 0.00 0.00 0.00 88 1012.7
20260905014332 81 66 0.0 0.0 0.00 0.00 0.00 88 1012.7
20260905013829 81 66 0.0 0.0 0.00 0.00 0.00 87 1012.7
20260905013325 81 66 0.0 0.0 0.00 0.00 0.00 87 1012.8
20260905012821 82 66 0.0 0.0 0.00 0.00 0.00 87 1012.7
20260905012317 82 66 0.0 0.0 0.00 0.00 0.00 86 1012.4
20260905011848 82 66 0.0 0.0 0.00 0.00 0.00 86 1012.6
20260905011325 82 66 0.0 0.0 0.00 0.00 0.00 86 1012.5
20260905010820 83 66 0.0 0.0 0.00 0.00 0.00 86 1012.6
20260905010356 83 66 0.0 0.0 0.00 0.00 0.00 85 1012.6
20260905005828 83 66 0.0 0.0 0.00 0.00 0.00 84 1012.6
20260905005343 84 66 0.0 0.0 0.00 0.00 0.00 83 1012.7
20260905004903 84 66 0.0 0.0 0.00 0.00 0.00 82 1012.7
20260905004331 85 66 0.0 0.0 0.00 0.00 0.00 81 1012.7
20260905003827 85 66 0.0 0.0 0.00 0.00 0.00 81 1012.8
20260905003323 86 66 0.0 0.0 0.00 0.00 0.00 80 1012.9
20260905002818 86 66 0.0 0.0 0.00 0.00 0.00 79 1012.8
20260905002355 87 66 0.0 0.0 0.00 0.00 0.00 77 1012.7
20260905001831 88 66 0.0 0.0 0.00 0.00 0.00 75 1012.6
20260905001325 88 66 0.0 0.0 0.00 0.00 0.00 75 1012.6
20260905000820 89 66 0.0 0.0 0.00 0.00 0.00 74 1012.5
20260905000318 89 66 0.0 0.0 0.00 0.00 0.00 74 1012.5
20260904235831 89 66 0.0 0.0 0.00 0.00 0.00 74 1012.4
20260904235326 89 66 0.0 1.0 0.00 0.00 0.00 71 1012.3
20260904234837 90 66 0.0 1.0 0.00 0.00 0.00 71 1012.3
20260904234331 90 244 0.0 0.0 0.00 0.00 0.00 70 1012.3
20260904233827 90 244 0.0 0.0 0.00 0.00 0.00 68 1012.4
20260904233322 90 244 0.0 0.0 0.00 0.00 0.00 69 1012.4
20260904232835 91 244 0.0 0.0 0.00 0.00 0.00 67 1012.6
20260904232329 91 244 0.0 1.0 0.00 0.00 0.00 67 1012.6
20260904231824 91 244 0.0 1.0 0.00 0.00 0.00 67 1012.6
20260904231321 91 244 0.0 1.0 0.00 0.00 0.00 66 1012.5
20260904230833 91 244 0.0 2.0 0.00 0.00 0.00 66 1012.4
20260904230329 91 244 0.0 2.0 0.00 0.00 0.00 65 1012.4
20260904225823 91 334 0.0 1.0 0.00 0.00 0.00 66 1012.2
20260904225330 92 202 0.0 1.0 0.00 0.00 0.00 66 1012.1
20260904224825 92 202 0.0 1.0 0.00 0.00 0.00 66 1011.9
20260904224339 92 222 0.0 1.0 0.00 0.00 0.00 65 1011.8
20260904223854 92 183 0.0 1.0 0.00 0.00 0.00 65 1011.9
20260904223327 92 183 0.0 1.0 0.00 0.00 0.00 64 1011.7
20260904222820 92 183 0.0 1.0 0.00 0.00 0.00 63 1011.7
20260904222334 93 183 0.0 1.0 0.00 0.00 0.00 62 1011.7
20260904221828 93 296 0.0 3.0 0.00 0.00 0.00 62 1011.8
20260904221341 93 296 0.0 3.0 0.00 0.00 0.00 61 1011.9
20260904220856 94 97 0.0 2.0 0.00 0.00 0.00 61 1012.0
20260904220329 94 31 0.0 2.0 0.00 0.00 0.00 60 1012.1
20260904215826 94 31 0.0 2.0 0.00 0.00 0.00 59 1012.1
20260904215322 95 136 0.0 2.0 0.00 0.00 0.00 58 1012.3
20260904214818 95 142 0.0 3.0 0.00 0.00 0.00 59 1012.3
20260904214335 95 205 0.0 3.0 0.00 0.00 0.00 60 1012.2
20260904213829 95 195 0.0 3.0 0.00 0.00 0.00 59 1012.2
20260904213324 95 360 0.0 4.0 0.00 0.00 0.00 58 1012.3
20260904212839 95 122 1.0 4.0 0.00 0.00 0.00 58 1012.4
20260904212332 95 230 0.0 2.0 0.00 0.00 0.00 57 1012.3
20260904211827 95 22 0.0 1.0 0.00 0.00 0.00 58 1012.4
20260904211321 96 26 0.0 2.0 0.00 0.00 0.00 57 1012.4
20260904210835 96 34 1.0 4.0 0.00 0.00 0.00 56 1012.4
20260904210329 96 138 1.0 4.0 0.00 0.00 0.00 58 1012.4
20260904205823 96 271 0.0 1.0 0.00 0.00 0.00 57 1012.4
20260904205317 96 180 0.0 3.0 0.00 0.00 0.00 59 1012.4
20260904204833 96 128 1.0 3.0 0.00 0.00 0.00 56 1012.5
20260904204326 96 233 1.0 3.0 0.00 0.00 0.00 55 1012.4
20260904203821 95 306 1.0 3.0 0.00 0.00 0.00 57 1012.5
20260904203331 95 318 1.0 3.0 0.00 0.00 0.00 56 1012.6
20260904202825 95 308 0.0 2.0 0.00 0.00 0.00 58 1012.6
20260904202319 95 346 0.0 2.0 0.00 0.00 0.00 63 1012.7
20260904201853 95 5 0.0 2.0 0.00 0.00 0.00 59 1012.7
20260904201327 96 57 0.0 2.0 0.00 0.00 0.00 58 1012.7
20260904200819 96 206 0.0 2.0 0.00 0.00 0.00 57 1012.8
20260904200335 97 116 0.0 2.0 0.00 0.00 0.00 57 1012.9
20260904195828 97 5 0.0 3.0 0.00 0.00 0.00 55 1012.9
20260904195323 97 173 0.0 3.0 0.00 0.00 0.00 54 1013.0
20260904194819 97 340 0.0 2.0 0.00 0.00 0.00 53 1013.1
20260904194335 97 9 0.0 1.0 0.00 0.00 0.00 54 1013.2
20260904193831 97 248 0.0 3.0 0.00 0.00 0.00 56 1013.2
20260904193325 97 243 1.0 3.0 0.00 0.00 0.00 53 1013.4
20260904192842 96 192 1.0 3.0 0.00 0.00 0.00 58 1013.4
20260904192331 96 296 1.0 3.0 0.00 0.00 0.00 53 1013.5
20260904191827 96 67 0.0 4.0 0.00 0.00 0.00 57 1013.5
20260904191342 96 314 1.0 5.0 0.00 0.00 0.00 55 1013.5
20260904190831 96 241 1.0 5.0 0.00 0.00 0.00 53 1013.7
20260904190327 96 73 1.0 4.0 0.00 0.00 0.00 53 1013.7
20260904185821 96 211 1.0 4.0 0.00 0.00 0.00 54 1013.8
20260904185334 96 312 1.0 4.0 0.00 0.00 0.00 56 1013.8
20260904184828 96 267 1.0 2.0 0.00 0.00 0.00 54 1014.0
20260904184344 96 296 1.0 3.0 0.00 0.00 0.00 54 1014.0
20260904183818 96 238 0.0 3.0 0.00 0.00 0.00 55 1014.0
20260904183332 96 128 1.0 4.0 0.00 0.00 0.00 54 1014.1
20260904182828 96 319 1.0 4.0 0.00 0.00 0.00 57 1014.1
20260904182322 95 230 0.0 4.0 0.00 0.00 0.00 58 1014.1
20260904181817 95 331 0.0 4.0 0.00 0.00 0.00 56 1014.1
20260904181331 95 252 1.0 4.0 0.00 0.00 0.00 56 1014.1
20260904180844 95 251 1.0 4.0 0.00 0.00 0.00 58 1014.1
20260904180318 94 60 1.0 4.0 0.00 0.00 0.00 60 1014.2
20260904175829 94 184 1.0 3.0 0.00 0.00 0.00 59 1014.1
20260904175323 94 232 0.0 3.0 0.00 0.00 0.00 62 1014.1
20260904174817 94 261 1.0 3.0 0.00 0.00 0.00 59 1014.2
20260904174334 94 229 0.0 3.0 0.00 0.00 0.00 58 1014.3
20260904173828 94 316 0.0 3.0 0.00 0.00 0.00 61 1014.2
20260904173323 94 232 0.0 2.0 0.00 0.00 0.00 58 1014.3
20260904172816 94 148 1.0 5.0 0.00 0.00 0.00 58 1014.4
20260904172332 94 303 2.0 5.0 0.00 0.00 0.00 59 1014.5
20260904171827 94 336 0.0 3.0 0.00 0.00 0.00 61 1014.4
20260904171324 94 175 1.0 2.0 0.00 0.00 0.00 60 1014.4
20260904170818 94 142 1.0 3.0 0.00 0.00 0.00 60 1014.5
20260904170333 93 215 1.0 4.0 0.00 0.00 0.00 58 1014.6
20260904165842 93 312 1.0 4.0 0.00 0.00 0.00 58 1014.5
20260904165331 93 280 1.0 3.0 0.00 0.00 0.00 60 1014.6
20260904164826 93 338 1.0 3.0 0.00 0.00 0.00 59 1014.6
20260904164321 93 322 1.0 3.0 0.00 0.00 0.00 59 1014.6
20260904163836 93 272 0.0 1.0 0.00 0.00 0.00 61 1014.5
20260904163329 92 272 0.0 2.0 0.00 0.00 0.00 63 1014.5
20260904162825 92 304 0.0 2.0 0.00 0.00 0.00 64 1014.4
20260904162319 92 302 1.0 2.0 0.00 0.00 0.00 62 1014.4
20260904161835 91 238 0.0 2.0 0.00 0.00 0.00 65 1014.4
20260904161329 91 241 1.0 2.0 0.00 0.00 0.00 66 1014.5
20260904160824 91 276 0.0 2.0 0.00 0.00 0.00 66 1014.4
20260904160339 90 276 0.0 2.0 0.00 0.00 0.00 67 1014.4
20260904155834 90 188 0.0 2.0 0.00 0.00 0.00 68 1014.4
20260904155328 89 238 0.0 1.0 0.00 0.00 0.00 71 1014.4
20260904154844 88 185 0.0 1.0 0.00 0.00 0.00 71 1014.4
20260904154339 87 268 0.0 1.0 0.00 0.00 0.00 71 1014.4
20260904153831 87 60 0.0 2.0 0.00 0.00 0.00 74 1014.5
20260904153326 87 27 0.0 2.0 0.00 0.00 0.00 72 1014.5
20260904152822 87 188 0.0 1.0 0.00 0.00 0.00 75 1014.5
20260904152332 86 188 0.0 1.0 0.00 0.00 0.00 74 1014.5
20260904151827 86 188 0.0 1.0 0.00 0.00 0.00 72 1014.5
20260904151341 86 68 0.0 1.0 0.00 0.00 0.00 73 1014.4
20260904150817 86 207 0.0 1.0 0.00 0.00 0.00 73 1014.3
20260904150331 85 236 0.0 2.0 0.00 0.00 0.00 74 1014.4
20260904145825 85 167 0.0 2.0 0.00 0.00 0.00 75 1014.3
20260904145341 85 46 0.0 1.0 0.00 0.00 0.00 74 1014.3
20260904144835 85 292 0.0 2.0 0.00 0.00 0.00 74 1014.3
20260904144325 84 233 0.0 3.0 0.00 0.00 0.00 75 1014.3
20260904143838 84 309 0.0 3.0 0.00 0.00 0.00 73 1014.2
20260904143332 84 347 0.0 3.0 0.00 0.00 0.00 75 1014.2
20260904142846 84 229 0.0 5.0 0.00 0.00 0.00 75 1014.2
20260904142321 84 300 0.0 5.0 0.00 0.00 0.00 75 1014.3
20260904141816 84 279 0.0 3.0 0.00 0.00 0.00 75 1014.1
20260904141331 83 154 1.0 3.0 0.00 0.00 0.00 75 1014.0
20260904140846 83 139 0.0 2.0 0.00 0.00 0.00 76 1013.9
20260904140321 83 33 0.0 4.0 0.00 0.00 0.00 77 1013.9
20260904135833 82 289 0.0 4.0 0.00 0.00 0.00 76 1013.8
20260904135327 82 311 0.0 3.0 0.00 0.00 0.00 77 1013.8
20260904134844 82 312 1.0 3.0 0.00 0.00 0.00 77 1013.8
20260904134316 81 338 0.0 3.0 0.00 0.00 0.00 78 1013.8
20260904133831 81 292 0.0 2.0 0.00 0.00 0.00 79 1013.7
20260904133326 81 311 0.0 3.0 0.00 0.00 0.00 78 1013.7
20260904132821 80 11 1.0 3.0 0.00 0.00 0.00 79 1013.6
20260904132332 80 251 1.0 3.0 0.00 0.00 0.00 80 1013.5
20260904131826 79 75 0.0 3.0 0.00 0.00 0.00 81 1013.5
20260904131340 79 236 0.0 2.0 0.00 0.00 0.00 82 1013.5
20260904130854 78 125 0.0 1.0 0.00 0.00 0.00 83 1013.4
20260904130328 78 256 0.0 1.0 0.00 0.00 0.00 83 1013.4
20260904125843 78 178 0.0 1.0 0.00 0.00 0.00 84 1013.3
20260904125331 77 211 0.0 1.0 0.00 0.00 0.00 84 1013.3
20260904124825 77 71 0.0 1.0 0.00 0.00 0.00 84 1013.2
20260904124341 77 9 0.0 1.0 0.00 0.00 0.00 85 1013.2
20260904123834 77 27 0.0 2.0 0.00 0.00 0.00 85 1013.0
20260904123328 77 58 0.0 2.0 0.00 0.00 0.00 85 1013.0
20260904122825 76 142 0.0 1.0 0.00 0.00 0.00 85 1012.9
20260904122318 76 38 0.0 1.0 0.00 0.00 0.00 86 1012.9
20260904121834 76 22 0.0 1.0 0.00 0.00 0.00 86 1012.8
20260904121328 76 22 0.0 1.0 0.00 0.00 0.00 86 1012.8
20260904120844 76 59 0.0 1.0 0.00 0.00 0.00 87 1012.8
20260904120352 76 234 0.0 1.0 0.00 0.00 0.00 87 1012.7
20260904115826 75 219 0.0 1.0 0.00 0.00 0.00 87 1012.6
20260904115321 75 119 0.0 0.0 0.00 0.00 0.00 87 1012.5
20260904114836 75 119 0.0 0.0 0.00 0.00 0.00 87 1012.4
20260904114351 75 119 0.0 0.0 0.00 0.00 0.00 87 1012.5
20260904113825 75 119 0.0 0.0 0.00 0.00 0.00 87 1012.5
20260904113321 75 119 0.0 0.0 0.00 0.00 0.00 87 1012.6
20260904112832 75 119 0.0 0.0 0.00 0.00 0.00 87 1012.5
20260904112328 75 119 0.0 0.0 0.00 0.00 0.00 87 1012.5
20260904111842 75 119 0.0 0.0 0.00 0.00 0.00 88 1012.5
20260904111331 75 119 0.0 0.0 0.00 0.00 0.00 88 1012.5
20260904110825 75 119 0.0 0.0 0.00 0.00 0.00 88 1012.6
20260904110321 76 119 0.0 0.0 0.00 0.00 0.00 88 1012.6
20260904105837 75 119 0.0 0.0 0.00 0.00 0.00 87 1012.5
20260904105350 75 119 0.0 0.0 0.00 0.00 0.00 87 1012.4
20260904104824 75 119 0.0 0.0 0.00 0.00 0.00 88 1012.5
20260904104319 75 119 0.0 0.0 0.00 0.00 0.00 88 1012.4
20260904103833 75 119 0.0 0.0 0.00 0.00 0.00 88 1012.4
20260904103330 75 119 0.0 0.0 0.00 0.00 0.00 88 1012.4
20260904102844 75 119 0.0 0.0 0.00 0.00 0.00 88 1012.4
20260904102318 75 119 0.0 0.0 0.00 0.00 0.00 88 1012.4
20260904101833 75 119 0.0 0.0 0.00 0.00 0.00 89 1012.4
20260904101328 75 119 0.0 0.0 0.00 0.00 0.00 89 1012.5
20260904100824 75 119 0.0 0.0 0.00 0.00 0.00 89 1012.5
20260904100318 75 119 0.0 0.0 0.00 0.00 0.00 89 1012.4
20260904095832 75 119 0.0 0.0 0.00 0.00 0.00 89 1012.4
20260904095327 75 119 0.0 0.0 0.00 0.00 0.00 89 1012.3
20260904094821 75 119 0.0 0.0 0.00 0.00 0.00 89 1012.3
20260904094335 75 119 0.0 0.0 0.00 0.00 0.00 89 1012.3
20260904093831 75 119 0.0 0.0 0.00 0.00 0.00 89 1012.4
20260904093329 75 119 0.0 0.0 0.00 0.00 0.00 89 1012.4
20260904092825 75 119 0.0 0.0 0.00 0.00 0.00 89 1012.4
20260904092320 75 119 0.0 0.0 0.00 0.00 0.00 89 1012.4
20260904091818 75 119 0.0 0.0 0.00 0.00 0.00 89 1012.3
20260904091353 75 119 0.0 0.0 0.00 0.00 0.00 89 1012.3
20260904090828 75 119 0.0 0.0 0.00 0.00 0.00 89 1012.3
20260904090320 75 119 0.0 0.0 0.00 0.00 0.00 90 1012.2
20260904085831 75 119 0.0 0.0 0.00 0.00 0.00 90 1012.1
20260904085326 75 119 0.0 0.0 0.00 0.00 0.00 90 1012.1
20260904084821 75 119 0.0 0.0 0.00 0.00 0.00 90 1012.1
20260904084336 75 119 0.0 0.0 0.00 0.00 0.00 90 1012.0
20260904083830 75 119 0.0 0.0 0.00 0.00 0.00 90 1012.2
20260904083325 75 119 0.0 0.0 0.00 0.00 0.00 90 1012.2
20260904082820 75 119 0.0 0.0 0.00 0.00 0.00 90 1012.2
20260904082333 75 119 0.0 0.0 0.00 0.00 0.00 90 1012.2
20260904081828 75 119 0.0 0.0 0.00 0.00 0.00 90 1012.1
20260904081322 75 119 0.0 0.0 0.00 0.00 0.00 90 1012.2
20260904080817 75 119 0.0 0.0 0.00 0.00 0.00 90 1012.2
20260904080331 75 119 0.0 0.0 0.00 0.00 0.00 90 1012.1
20260904075846 75 119 0.0 0.0 0.00 0.00 0.00 90 1012.2
20260904075320 75 119 0.0 0.0 0.00 0.00 0.00 90 1012.1
20260904074855 75 119 0.0 0.0 0.00 0.00 0.00 90 1012.2
20260904074329 75 119 0.0 0.0 0.00 0.00 0.00 90 1012.3
20260904073824 75 119 0.0 0.0 0.00 0.00 0.00 90 1012.3
20260904073320 75 119 0.0 0.0 0.00 0.00 0.00 90 1012.4
20260904072834 75 119 0.0 0.0 0.00 0.00 0.00 90 1012.5
20260904072350 75 119 0.0 0.0 0.00 0.00 0.00 90 1012.6
20260904071826 75 119 0.0 0.0 0.00 0.00 0.00 90 1012.6
20260904071341 75 119 0.0 0.0 0.00 0.00 0.00 90 1012.6
20260904070834 75 119 0.0 0.0 0.00 0.00 0.00 90 1012.7
20260904070349 75 119 0.0 0.0 0.00 0.00 0.00 90 1012.7
20260904065844 75 119 0.0 0.0 0.00 0.00 0.00 90 1012.8
20260904065318 76 119 0.0 0.0 0.00 0.00 0.00 90 1012.7
20260904064829 76 119 0.0 0.0 0.00 0.00 0.00 90 1012.7
20260904064342 76 119 0.0 0.0 0.00 0.00 0.00 90 1012.7
20260904063831 76 119 0.0 0.0 0.00 0.00 0.00 90 1012.8
20260904063324 76 119 0.0 0.0 0.00 0.00 0.00 90 1012.8
20260904062850 76 119 0.0 0.0 0.00 0.00 0.00 90 1012.8
20260904062345 76 119 0.0 0.0 0.00 0.00 0.00 90 1012.8
20260904061819 76 119 0.0 0.0 0.00 0.00 0.00 90 1012.8
20260904061335 76 119 0.0 0.0 0.00 0.00 0.00 90 1012.9
20260904060851 76 119 0.0 0.0 0.00 0.00 0.00 90 1012.8
20260904060324 76 119 0.0 0.0 0.00 0.00 0.00 90 1012.9
20260904055819 76 119 0.0 0.0 0.00 0.00 0.00 90 1013.0
20260904055353 77 119 0.0 0.0 0.00 0.00 0.00 90 1013.0
20260904054828 77 119 0.0 0.0 0.00 0.00 0.00 90 1012.9
20260904054323 77 119 0.0 0.0 0.00 0.00 0.00 90 1013.0
20260904053838 77 119 0.0 0.0 0.00 0.00 0.00 90 1013.0
20260904053332 77 119 0.0 0.0 0.00 0.00 0.00 90 1013.0
20260904052827 77 119 0.0 0.0 0.00 0.00 0.00 90 1013.0
20260904052323 77 119 0.0 0.0 0.00 0.00 0.00 90 1013.0
20260904051837 77 119 0.0 0.0 0.00 0.00 0.00 90 1013.0
20260904051349 77 119 0.0 0.0 0.00 0.00 0.00 90 1012.9
20260904050822 77 119 0.0 0.0 0.00 0.00 0.00 90 1012.9
20260904050317 77 119 0.0 0.0 0.00 0.00 0.00 90 1012.9
20260904045825 77 119 0.0 0.0 0.00 0.00 0.00 90 1012.9
20260904045320 77 119 0.0 0.0 0.00 0.00 0.00 90 1012.8
20260904044855 77 119 0.0 0.0 0.00 0.00 0.00 90 1012.9
20260904044326 77 119 0.0 0.0 0.00 0.00 0.00 90 1012.8
20260904043821 77 119 0.0 0.0 0.00 0.00 0.00 90 1012.7
20260904043317 77 119 0.0 0.0 0.00 0.00 0.00 90 1012.8
20260904042831 77 119 0.0 0.0 0.00 0.00 0.00 90 1012.7
20260904042326 78 119 0.0 0.0 0.00 0.00 0.00 90 1012.6
20260904041822 78 119 0.0 0.0 0.00 0.00 0.00 90 1012.6
20260904041316 78 119 0.0 0.0 0.00 0.00 0.00 90 1012.6
20260904040831 78 119 0.0 0.0 0.00 0.00 0.00 89 1012.6
20260904040327 78 119 0.0 0.0 0.00 0.00 0.00 89 1012.6
20260904035841 78 119 0.0 0.0 0.00 0.00 0.00 89 1012.6
20260904035317 78 119 0.0 0.0 0.00 0.00 0.00 89 1012.7
20260904034832 78 119 0.0 0.0 0.00 0.00 0.00 90 1012.7
20260904034328 78 119 0.0 0.0 0.00 0.00 0.00 89 1012.7
20260904033823 78 119 0.0 0.0 0.00 0.00 0.00 89 1012.7
20260904033339 78 119 0.0 0.0 0.00 0.00 0.00 89 1012.8
20260904032831 79 119 0.0 0.0 0.00 0.00 0.00 89 1012.8
20260904032326 79 119 0.0 0.0 0.00 0.00 0.00 89 1012.8
20260904031821 79 119 0.0 0.0 0.00 0.00 0.00 89 1012.8
20260904031336 79 119 0.0 0.0 0.00 0.00 0.00 89 1012.7
20260904030832 79 119 0.0 0.0 0.00 0.00 0.00 89 1012.7
20260904030345 79 119 0.0 0.0 0.00 0.00 0.00 89 1012.7
20260904025818 79 119 0.0 0.0 0.00 0.00 0.00 89 1012.7
20260904025333 79 119 0.0 0.0 0.00 0.00 0.00 89 1012.7
20260904024827 79 119 0.0 0.0 0.00 0.00 0.00 89 1012.6
20260904024321 80 119 0.0 0.0 0.00 0.00 0.00 89 1012.5
20260904023831 80 119 0.0 0.0 0.00 0.00 0.00 89 1012.5
20260904023325 80 119 0.0 0.0 0.00 0.00 0.00 89 1012.4
20260904022820 80 119 0.0 0.0 0.00 0.00 0.00 89 1012.4